Regional Weather Roundup
Issued by NWS

Home | Current Version | Previous Version | Text Only | Print | Product List | Glossary Off
Versions: 1 2 3 4 5 6 7 8 9 10 11 12 13 14 15 16 17 18 19 20 21 22 23 24 25 26 27 28 29 30 31 32 33 34 35 36 37 38 39 40 41 42 43 44 45 46 47 48 49 50

000
ASUS43 KOAX 051810
RWRNE

WEATHER ROUNDUP FOR NEBRASKA
NATIONAL WEATHER SERVICE OMAHA NE
100 PM CDT TUE MAY 05 2015

NOTES: SATELLITE DATA IS BEING USED TO AUGMENT CLOUD COVER ABOVE
       12000 FEET.
       "FAIR" INDICATES FEW OR NO CLOUDS BELOW 12,000 FEET WITH NO
       SIGNIFICANT WEATHER AND/OR OBSTRUCTIONS TO VISIBILITY.

  * THESE STATIONS DO NOT REPORT WEATHER SUCH AS RAIN...SNOW OR FOG.

NEZ001>004-019>022-054>056-051900-
NEBRASKA PANHANDLE

CITY           SKY/WX    TMP DP  RH WIND       PRES   REMARKS
SCOTTSBLUFF    CLOUDY    60  49  66 SE13      29.95F
6HR MIN TEMP:  48; 6HR MAX TEMP:  61;

ALLIANCE       CLOUDY    59  49  69 SE16G22   29.97F
6HR MIN TEMP:  48; 6HR MAX TEMP:  60;

CHADRON        CLOUDY    59  48  67 S10       29.96F
6HR MIN TEMP:  39; 6HR MAX TEMP:  60;

KIMBALL        CLOUDY    53  49  86 SE12      29.97S
SIDNEY         CLOUDY    52  48  86 SE12      29.99F
6HR MIN TEMP:  45; 6HR MAX TEMP:  52;

$$

NEZ057>060-069>072-079>082-051900-
SOUTHWEST NEBRASKA

CITY           SKY/WX    TMP DP  RH WIND       PRES   REMARKS
NORTH PLATTE   LGT RAIN  58  56  93 E8        30.00F
6HR MIN TEMP:  51; 6HR MAX TEMP:  58; 6HR PCP:  0.01;

IMPERIAL       CLOUDY    55  54  96 E8        29.98F FOG
6HR MIN TEMP:  50; 6HR MAX TEMP:  55; 6HR PCP: TRACE;

LEXINGTON      CLOUDY    64  61  93 E12G17    30.00F
MCCOOK         CLOUDY    61  58  90 E9        29.97F FOG
6HR MIN TEMP:  54; 6HR MAX TEMP:  61; 6HR PCP:  0.01;

OGALLALA       CLOUDY    53  53  98 E9        30.00F FOG
$$

NEZ005>010-023>029-035>040-094-051900-
NORTH CENTRAL NEBRASKA

CITY           SKY/WX    TMP DP  RH WIND       PRES   REMARKS
VALENTINE      LGT RAIN  55  53  93 SE8       30.02F FOG
6HR MIN TEMP:  50; 6HR MAX TEMP:  55; 6HR PCP: TRACE;

AINSWORTH      CLOUDY    58  57  96 SE8       30.02F
BROKEN BOW     CLOUDY    61  57  87 SE14G21   30.01F
6HR MIN TEMP:  54; 6HR MAX TEMP:  61; 6HR PCP:  0.01;

O`NEILL        CLOUDY    59  58  95 SE8       30.04F FOG
ORD            CLOUDY    63  57  81 SE9       30.02S
6HR MIN TEMP:  54; 6HR MAX TEMP:  63; 6HR PCP:  0.01;

THEDFORD       RAIN      59  56  89 SE8       30.02F
$$

NEZ041-046>049-061>064-073>077-083>087-051900-
SOUTH CENTRAL NEBRASKA

CITY           SKY/WX    TMP DP  RH WIND       PRES   REMARKS
GRAND ISLAND   PTSUNNY   68  60  75 SE10      30.03F
6HR MIN TEMP:  55; 6HR MAX TEMP:  68;

AURORA         PTSUNNY   71  64  78 SE12G20   30.03F
HASTINGS       PTSUNNY   71  60  68 SE13      30.01F
6HR MIN TEMP:  58; 6HR MAX TEMP:  71;

HEBRON         CLOUDY    72  56  56 S14G20    30.04S
HOLDREGE       CLOUDY    68  58  70 SE14      29.99F
KEARNEY *      CLOUDY    66  61  82 SE13      30.01F
YORK           PTSUNNY   68  63  83 S9        30.04F
$$

NEZ011>018-030>034-042>045-051900-
NORTHEAST NEBRASKA

CITY           SKY/WX    TMP DP  RH WIND       PRES   REMARKS
NORFOLK        PTSUNNY   69  61  75 SE9       30.04F
6HR MIN TEMP:  55; 6HR MAX TEMP:  70;

ALBION         CLOUDY    63  60  90 SE10      30.05F
BLAIR          PTSUNNY   70  60  68 S16       30.07F
COLUMBUS *     PTSUNNY   66  59  77 SE8       30.07F
FREMONT        PTSUNNY   70  62  75 SE12      30.07S
TEKAMAH        PTSUNNY   72  64  76 SE12      30.06F
6HR MIN TEMP:  57; 6HR MAX TEMP:  72; 6HR PCP:  0.02;

WAYNE          CLOUDY    64  61  88 SE7       30.07F FOG
$$

NEZ050>053-065>068-078-088>093-051900-
SOUTHEAST NEBRASKA

CITY           SKY/WX    TMP DP  RH WIND       PRES   REMARKS
LINCOLN        PTSUNNY   72  63  73 S13       30.06F
6HR MIN TEMP:  60; 6HR MAX TEMP:  72; 6HR PCP: TRACE;

OMAHA EPPLEY   CLOUDY    72  61  68 S14       30.07F
6HR MIN TEMP:  60; 6HR MAX TEMP:  72;

BEATRICE       PTSUNNY   73  60  65 S7        30.06F
FALLS CITY     PTSUNNY   76  60  57 S15       30.07F
6HR MIN TEMP:  58; 6HR MAX TEMP:  76;

NEBRASKA CITY  CLOUDY    70  61  73 S10       30.08F
PLATTSMOUTH    CLOUDY    70  61  72 SE13      30.08F
$$

NEZ044-045-051>053-067-051900-
OMAHA AREA

CITY           SKY/WX    TMP DP  RH WIND       PRES   REMARKS
OMAHA EPPLEY   CLOUDY    72  61  68 S14       30.07F
6HR MIN TEMP:  60; 6HR MAX TEMP:  72;

BLAIR          PTSUNNY   70  60  68 S16       30.07F
FREMONT        PTSUNNY   70  62  75 SE12      30.07S
MILLARD        PTSUNNY   71  62  73 SE9       30.07S
OFFUTT AFB     PTSUNNY   73  63  71 SE14G23   30.07F
PLATTSMOUTH    CLOUDY    70  61  72 SE13      30.08F
$$



USA.gov is the U.S. government's official web portal to all federal, state and local government web resources and services.